This is the latest recevied weather packets stored in our database for station/object WI5ARD. If no packets are shown the sender has not sent any weather packets the latest 10 day(s).
| Time | Temp. | Humidity | Pressure | Rain* | Wind** | Luminosity | Snow |
|---|---|---|---|---|---|---|---|
| 1778084134 | 25.56° C | 90% | 1015.7 hPa | 0 mm | - | 116 W/m² | - |
| 1778083241 | 25.56° C | 91% | 1015.5 hPa | 0 mm | - | 183 W/m² | - |
| 1778081118 | 25° C | 91% | 1015.4 hPa | 0 mm | - | 95 W/m² | - |
| 1778080536 | 25° C | 91% | 1015.3 hPa | 0 mm | - | 104 W/m² | - |
| 1778078739 | 24.44° C | 93% | 1015.4 hPa | 0 mm | - | 123 W/m² | - |
| 1778077519 | 23.89° C | 94% | 1015 hPa | 0 mm | - | 100 W/m² | - |
| 1778077222 | 23.89° C | 93% | 1015 hPa | 0 mm | - | 70 W/m² | - |
| 1778072119 | 22.78° C | 95% | 1014.3 hPa | 0 mm | - | 105 W/m² | - |
| 1778069734 | 22.22° C | 95% | 1014 hPa | 0 mm | - | 18 W/m² | - |
| 1778067936 | 22.22° C | 94% | 1014 hPa | 0 mm | - | 7 W/m² | - |
| 1778067620 | 22.22° C | 94% | 1014 hPa | 0 mm | - | 0 W/m² | - |
| 1778067321 | 22.22° C | 94% | 1013.9 hPa | 0 mm | - | 0 W/m² | - |
| 1778065519 | 21.67° C | 94% | 1013.6 hPa | 0 mm | - | 0 W/m² | - |
| 1778064919 | 21.67° C | 94% | 1013.5 hPa | 0 mm | - | 0 W/m² | - |
| 1778064340 | 21.67° C | 94% | 1013.4 hPa | 0 mm | - | 0 W/m² | - |
| 1778063719 | 21.67° C | 94% | 1013.3 hPa | 0 mm | - | 0 W/m² | - |
| 1778057721 | 22.22° C | 93% | 1013.1 hPa | 0 mm | - | 0 W/m² | - |
| 1778052636 | 21.67° C | 94% | 1013.4 hPa | 0 mm | - | 0 W/m² | - |
| 1778049620 | 21.67° C | 94% | 1013.7 hPa | 0 mm | - | 0 W/m² | - |
| 1778047521 | 21.67° C | 94% | 1013.7 hPa | 0 mm | - | 0 W/m² | - |
| 1778046920 | 21.67° C | 94% | 1013.7 hPa | 0 mm | - | 0 W/m² | - |
| 1778046021 | 21.67° C | 94% | 1014 hPa | 0 mm | - | 0 W/m² | - |
| 1778045447 | 21.67° C | 94% | 1014 hPa | 0 mm | - | 0 W/m² | - |
| 1778043019 | 21.11° C | 93% | 1013.9 hPa | 0 mm | - | 0 W/m² | - |
| 1778042750 | 21.11° C | 93% | 1014 hPa | 0 mm | - | 0 W/m² | - |
* Rain latest hour (hover to see other rain measurements)
** Current wind speed in m/s (hover to see current wind gust speed)